Kasagimaru — JJ3905 — position and weather

sailwx.info

Track history (hours):
 
Tides and Currents Weather Stations Pressure Air Temp Water Temp Dewpoint Dewpoint Depression Visibility Wind Speed Wind Dir Waves Ship Positions

Kasagimaru

Last reported at 2014-Nov-26 14:33 UTC. Time now 2014-Nov-26 14:57 UTC.
Position N 34°33' E 135°25'.

Length 42 m; draft 3.5 m.

Type: Tug. MMSI: 431300268.

Date/timePositionNaut miles runAvg speedWind from/ knotsBaromVisibWave heightAir tempDewpointWater temp
2014-Nov-26 14:33N 34°33' E 135°25'0 0.1
2014-Nov-26 13:33N 34°33' E 135°25'0 0.1
2014-Nov-26 12:33N 34°33' E 135°25'0 0.1
2014-Nov-26 11:33N 34°33' E 135°25'0 0.3
2014-Nov-26 10:33N 34°33' E 135°25'0 0.0
2014-Nov-26 09:33N 34°33' E 135°25'0 0.1
2014-Nov-26 08:33N 34°33' E 135°25'0 0.1
2014-Nov-26 07:33N 34°33' E 135°25'0 0.1
2014-Nov-26 06:33N 34°33' E 135°25'0 0.1
2014-Nov-26 05:32N 34°33' E 135°25'0 0.1
2014-Nov-26 04:33N 34°33' E 135°25'0 0.1
2014-Nov-26 03:33N 34°33' E 135°25'0 0.1
2014-Nov-26 02:33N 34°33' E 135°25'0 0.0
2014-Nov-26 01:33N 34°33' E 135°25'4 3.8
2014-Nov-26 00:33N 34°33' E 135°20'9 9.2
2014-Nov-25 23:33N 34°28' E 135°11'1413.3
2014-Nov-25 22:30N 34°18' E 134°60'5 4.6
2014-Nov-25 21:21N 34°13' E 135°01'911.0
2014-Nov-25 20:33N 34°21' E 135°06'1212.2
2014-Nov-25 19:33N 34°28' E 135°18'9 8.7
2014-Nov-25 18:33N 34°33' E 135°27'0 0.0
2014-Nov-25 17:33N 34°33' E 135°27'0 0.0
2014-Nov-25 16:32N 34°33' E 135°27'0 0.0
2014-Nov-25 15:33N 34°33' E 135°27'0 0.0
2014-Nov-25 14:33N 34°33' E 135°27'0 0.0
2014-Nov-25 13:33N 34°33' E 135°27'0 0.0
2014-Nov-25 12:33N 34°33' E 135°27'0 0.0
2014-Nov-25 11:31N 34°33' E 135°27'0 0.0
2014-Nov-25 10:27N 34°33' E 135°27'0 0.0
2014-Nov-25 09:30N 34°33' E 135°27'0 0.0
2014-Nov-25 07:33N 34°33' E 135°27'0 0.0
2014-Nov-25 06:31N 34°33' E 135°27'0 0.0
2014-Nov-25 05:30N 34°33' E 135°27'0 0.0
2014-Nov-25 04:29N 34°33' E 135°27'0 0.0
2014-Nov-25 01:33N 34°33' E 135°27'0 0.0
2014-Nov-25 00:33N 34°33' E 135°27'0 0.1
2014-Nov-24 23:33N 34°33' E 135°27'1 0.5
2014-Nov-24 22:33N 34°34' E 135°26'1 0.1
2014-Nov-24 16:18N 34°33' E 135°27'0 0.0
2014-Nov-24 15:33N 34°33' E 135°27'0 0.0
2014-Nov-24 14:33N 34°33' E 135°27'0 0.0
2014-Nov-24 13:33N 34°33' E 135°27'0 0.0
2014-Nov-24 12:33N 34°33' E 135°27'0 0.0
2014-Nov-24 08:33N 34°33' E 135°27'3 3.3
2014-Nov-24 07:31N 34°31' E 135°23'0 0.2
2014-Nov-24 06:33N 34°31' E 135°23'2 2.3
2014-Nov-24 05:33N 34°33' E 135°24'2 2.1
2014-Nov-24 04:31N 34°33' E 135°27'0 0.0
2014-Nov-24 03:22N 34°33' E 135°27'0 0.0
2014-Nov-24 02:29N 34°33' E 135°27'1 0.6
2014-Nov-24 01:33N 34°33' E 135°26'1 0.7
2014-Nov-24 00:33N 34°33' E 135°25'4 4.0
2014-Nov-23 23:33N 34°34' E 135°20'5 1.7
2014-Nov-23 20:33N 34°33' E 135°27'0 0.0
2014-Nov-23 19:33N 34°33' E 135°27'0 0.0
2014-Nov-23 18:33N 34°33' E 135°27'0 0.0
2014-Nov-23 17:33N 34°33' E 135°27'0 0.0
2014-Nov-23 16:33N 34°33' E 135°27'0 0.0
2014-Nov-23 15:33N 34°33' E 135°27'0 0.0
2014-Nov-23 14:33N 34°33' E 135°27'0 0.0
2014-Nov-23 13:33N 34°33' E 135°27'0 0.0
2014-Nov-23 12:33N 34°33' E 135°27'2 0.3
2014-Nov-23 05:31N 34°33' E 135°24'1111.3
2014-Nov-23 04:33N 34°25' E 135°15'1310.4
2014-Nov-23 03:19N 34°17' E 135°03'4 4.8
2014-Nov-23 02:33N 34°19' E 134°59'1514.6
2014-Nov-23 01:33N 34°30' E 135°11'1211.7
2014-Nov-23 00:33N 34°33' E 135°25'1 1.2
2014-Nov-22 23:33N 34°33' E 135°27'0 0.2
2014-Nov-22 22:14N 34°33' E 135°27'0 0.0
2014-Nov-22 21:25N 34°33' E 135°27'0 0.0
2014-Nov-22 20:33N 34°33' E 135°27'0 0.0
2014-Nov-22 19:33N 34°33' E 135°27'0 0.0
2014-Nov-22 18:33N 34°33' E 135°27'0 0.0
2014-Nov-22 17:33N 34°33' E 135°27'0 0.0
2014-Nov-22 16:33N 34°33' E 135°27'0 0.0
2014-Nov-22 15:33N 34°33' E 135°27'0 0.0
2014-Nov-22 14:33N 34°33' E 135°27'0 0.0
2014-Nov-22 13:15N 34°33' E 135°27'0 0.0
2014-Nov-22 09:31N 34°33' E 135°27'0 0.0
2014-Nov-22 08:33N 34°33' E 135°27'0 0.0
2014-Nov-22 07:33N 34°33' E 135°27'0 0.0
2014-Nov-22 06:17N 34°33' E 135°27'0 0.0
2014-Nov-22 05:32N 34°33' E 135°27'0 0.0
2014-Nov-22 04:25N 34°33' E 135°27'0 0.0
2014-Nov-22 03:14N 34°33' E 135°27'1 2.0
2014-Nov-22 02:33N 34°33' E 135°25'3 2.6
2014-Nov-22 01:32N 34°33' E 135°22'8 7.9
2014-Nov-22 00:30N 34°29' E 135°13'1313.1
2014-Nov-21 23:29N 34°20' E 135°02'8 8.6
2014-Nov-21 22:31N 34°12' E 135°00'1111.2
2014-Nov-21 21:33N 34°21' E 135°07'1211.9
2014-Nov-21 20:33N 34°28' E 135°19'8 7.1
2014-Nov-21 19:23N 34°33' E 135°27'0 0.0
2014-Nov-21 18:33N 34°33' E 135°27'0 0.0
2014-Nov-21 17:29N 34°33' E 135°27'0 0.0
2014-Nov-21 16:32N 34°33' E 135°27'0 0.0
2014-Nov-21 15:33N 34°33' E 135°27'0 0.0
2014-Nov-21 14:33N 34°33' E 135°27'0 0.0
2014-Nov-21 13:33N 34°33' E 135°27'0 0.0
2014-Nov-21 12:33N 34°33' E 135°27'0 0.0
2014-Nov-21 11:33N 34°33' E 135°27'0 0.0
2014-Nov-21 08:19N 34°33' E 135°27'0 0.0
2014-Nov-21 07:31N 34°33' E 135°27'0 0.0
2014-Nov-21 06:22N 34°33' E 135°27'0 0.0
2014-Nov-21 05:33N 34°33' E 135°27'0 0.0
2014-Nov-21 04:20N 34°33' E 135°27'0 0.0
2014-Nov-21 03:30N 34°33' E 135°27'0 0.0
2014-Nov-21 02:33N 34°33' E 135°27'0 0.0
2014-Nov-21 01:33N 34°33' E 135°27'1 0.5
2014-Nov-21 00:33N 34°33' E 135°26'1 0.8
2014-Nov-20 23:13N 34°33' E 135°25'1 1.8
2014-Nov-20 22:32N 34°33' E 135°27'0 0.0
2014-Nov-20 21:33N 34°33' E 135°27'0 0.0
2014-Nov-20 20:33N 34°33' E 135°27'0 0.0
2014-Nov-20 17:24N 34°33' E 135°27'0 0.0
2014-Nov-20 16:25N 34°33' E 135°27'0 0.0
2014-Nov-20 13:30N 34°33' E 135°27'0 0.0
2014-Nov-20 12:30N 34°33' E 135°27'0 0.0
2014-Nov-20 09:15N 34°33' E 135°27'0 0.0
2014-Nov-20 08:32N 34°33' E 135°27'8 8.5
2014-Nov-20 07:33N 34°35' E 135°17'1312.2
2014-Nov-20 06:31N 34°38' E 135°02'13 3.1
2014-Nov-20 02:17N 34°41' E 134°46'810.3
2014-Nov-20 01:32N 34°37' E 134°54'1211.6
2014-Nov-20 00:32N 34°36' E 135°08'1212.0
2014-Nov-19 23:33N 34°34' E 135°23'3 3.2
2014-Nov-19 22:29N 34°33' E 135°27'0 0.0
2014-Nov-19 21:33N 34°33' E 135°27'0 0.0
2014-Nov-19 20:31N 34°33' E 135°27'0 0.0
2014-Nov-19 19:33N 34°33' E 135°27'0 0.0
2014-Nov-19 18:33N 34°33' E 135°27'0 0.0
2014-Nov-19 17:33N 34°33' E 135°27'0 0.0
2014-Nov-19 16:33N 34°33' E 135°27'0 0.0
2014-Nov-19 15:33N 34°33' E 135°27'0 0.0
2014-Nov-19 14:33N 34°33' E 135°27'0 0.0
2014-Nov-19 13:31N 34°33' E 135°27'0 0.0
2014-Nov-19 12:33N 34°33' E 135°27'0 0.0
2014-Nov-19 11:26N 34°33' E 135°27'0 0.0
2014-Nov-19 10:23N 34°33' E 135°27'0 0.0
2014-Nov-19 06:08N 34°33' E 135°27'3 5.9
2014-Nov-19 05:33N 34°32' E 135°23'7 6.3
2014-Nov-19 04:30N 34°27' E 135°18'1010.1
2014-Nov-19 03:33N 34°21' E 135°08'1110.5
2014-Nov-19 02:32N 34°13' E 134°60'3 0.5
2014-Nov-18 20:21N 34°11' E 134°58'1011.7
2014-Nov-18 19:32N 34°19' E 135°04'1212.0
2014-Nov-18 18:33N 34°25' E 135°16'1211.8
2014-Nov-18 17:33N 34°33' E 135°26'0 0.5
2014-Nov-18 16:33N 34°33' E 135°27'0 0.0
2014-Nov-18 15:33N 34°33' E 135°27'0 0.0
2014-Nov-18 14:33N 34°33' E 135°27'0 0.0
2014-Nov-18 13:33N 34°33' E 135°27'0 0.0
2014-Nov-18 12:33N 34°33' E 135°27'0 0.0
2014-Nov-18 11:33N 34°33' E 135°27'0 0.0
2014-Nov-18 07:26N 34°33' E 135°27'1 1.2
2014-Nov-18 06:32N 34°33' E 135°25'4 4.6
2014-Nov-18 05:33N 34°33' E 135°20'1 1.2
2014-Nov-18 04:33N 34°34' E 135°18'6 5.2
2014-Nov-18 03:27N 34°33' E 135°25'0 0.5
2014-Nov-18 02:33N 34°33' E 135°26'1 0.8
2014-Nov-18 01:33N 34°33' E 135°27'0 0.0
2014-Nov-18 00:17N 34°33' E 135°27'0 0.0
2014-Nov-17 23:30N 34°33' E 135°27'0 0.0
2014-Nov-17 22:21N 34°33' E 135°27'0 0.0
2014-Nov-17 21:33N 34°33' E 135°27'0 0.0
2014-Nov-17 20:32N 34°33' E 135°27'0 0.0
2014-Nov-17 19:32N 34°33' E 135°27'0 0.0
2014-Nov-17 18:33N 34°33' E 135°27'0 0.0
2014-Nov-17 17:32N 34°33' E 135°27'0 0.0
2014-Nov-17 16:32N 34°33' E 135°27'0 0.0
2014-Nov-17 15:29N 34°33' E 135°27'0 0.0
2014-Nov-17 14:29N 34°33' E 135°27'0 0.0
2014-Nov-17 13:33N 34°33' E 135°27'0 0.0
2014-Nov-17 12:33N 34°33' E 135°27'0 0.0
2014-Nov-17 11:33N 34°33' E 135°27'0 0.0
2014-Nov-17 10:33N 34°33' E 135°27'0 0.0
2014-Nov-17 09:31N 34°33' E 135°27'0 0.0
2014-Nov-17 08:33N 34°33' E 135°27'0 0.0
2014-Nov-17 07:32N 34°33' E 135°27'0 0.0
2014-Nov-17 06:18N 34°33' E 135°27'0 0.0
2014-Nov-17 05:18N 34°33' E 135°27'0 0.0
2014-Nov-17 04:32N 34°33' E 135°27'0 0.0
2014-Nov-17 03:24N 34°33' E 135°27'0 0.0
2014-Nov-17 02:33N 34°33' E 135°27'0 0.0
2014-Nov-17 01:30N 34°33' E 135°27'1 1.1
2014-Nov-17 00:33N 34°33' E 135°25'1 0.9
2014-Nov-16 23:31N 34°34' E 135°26'1 0.7
2014-Nov-16 22:33N 34°33' E 135°27'0 0.0
2014-Nov-16 21:33N 34°33' E 135°27'0 0.0
2014-Nov-16 20:33N 34°33' E 135°27'0 0.0
2014-Nov-16 19:33N 34°33' E 135°27'0 0.0
2014-Nov-16 18:33N 34°33' E 135°27'0 0.0
2014-Nov-16 17:33N 34°33' E 135°27'0 0.0
2014-Nov-16 16:33N 34°33' E 135°27'0 0.0
2014-Nov-16 15:33N 34°33' E 135°27'0 0.0
2014-Nov-16 14:33N 34°33' E 135°27'  
Track history (hours):
 
Tides and Currents Weather Stations Pressure Air Temp Water Temp Dewpoint Dewpoint Depression Visibility Wind Speed Wind Dir Waves Ship Positions

Kasagimaru

Last reported at 2014-Nov-26 14:33 UTC. Time now 2014-Nov-26 14:57 UTC.
Position N 34°33' E 135°25'.

Length 42 m; draft 3.5 m.

Type: Tug. MMSI: 431300268.

Date/timePositionNaut miles runAvg speedWind from/ knotsBaromVisibWave heightAir tempDewpointWater temp
2014-Nov-26 14:33N 34°33' E 135°25'0 0.1
2014-Nov-26 13:33N 34°33' E 135°25'0 0.1
2014-Nov-26 12:33N 34°33' E 135°25'0 0.1
2014-Nov-26 11:33N 34°33' E 135°25'0 0.3
2014-Nov-26 10:33N 34°33' E 135°25'0 0.0
2014-Nov-26 09:33N 34°33' E 135°25'0 0.1
2014-Nov-26 08:33N 34°33' E 135°25'0 0.1
2014-Nov-26 07:33N 34°33' E 135°25'0 0.1
2014-Nov-26 06:33N 34°33' E 135°25'0 0.1
2014-Nov-26 05:32N 34°33' E 135°25'0 0.1
2014-Nov-26 04:33N 34°33' E 135°25'0 0.1
2014-Nov-26 03:33N 34°33' E 135°25'0 0.1
2014-Nov-26 02:33N 34°33' E 135°25'0 0.0
2014-Nov-26 01:33N 34°33' E 135°25'4 3.8
2014-Nov-26 00:33N 34°33' E 135°20'9 9.2
2014-Nov-25 23:33N 34°28' E 135°11'1413.3
2014-Nov-25 22:30N 34°18' E 134°60'5 4.6
2014-Nov-25 21:21N 34°13' E 135°01'911.0
2014-Nov-25 20:33N 34°21' E 135°06'1212.2
2014-Nov-25 19:33N 34°28' E 135°18'9 8.7
2014-Nov-25 18:33N 34°33' E 135°27'0 0.0
2014-Nov-25 17:33N 34°33' E 135°27'0 0.0
2014-Nov-25 16:32N 34°33' E 135°27'0 0.0
2014-Nov-25 15:33N 34°33' E 135°27'0 0.0
2014-Nov-25 14:33N 34°33' E 135°27'0 0.0
2014-Nov-25 13:33N 34°33' E 135°27'0 0.0
2014-Nov-25 12:33N 34°33' E 135°27'0 0.0
2014-Nov-25 11:31N 34°33' E 135°27'0 0.0
2014-Nov-25 10:27N 34°33' E 135°27'0 0.0
2014-Nov-25 09:30N 34°33' E 135°27'0 0.0
2014-Nov-25 07:33N 34°33' E 135°27'0 0.0
2014-Nov-25 06:31N 34°33' E 135°27'0 0.0
2014-Nov-25 05:30N 34°33' E 135°27'0 0.0
2014-Nov-25 04:29N 34°33' E 135°27'0 0.0
2014-Nov-25 01:33N 34°33' E 135°27'0 0.0
2014-Nov-25 00:33N 34°33' E 135°27'0 0.1
2014-Nov-24 23:33N 34°33' E 135°27'1 0.5
2014-Nov-24 22:33N 34°34' E 135°26'1 0.1
2014-Nov-24 16:18N 34°33' E 135°27'0 0.0
2014-Nov-24 15:33N 34°33' E 135°27'0 0.0
2014-Nov-24 14:33N 34°33' E 135°27'0 0.0
2014-Nov-24 13:33N 34°33' E 135°27'0 0.0
2014-Nov-24 12:33N 34°33' E 135°27'0 0.0
2014-Nov-24 08:33N 34°33' E 135°27'3 3.3
2014-Nov-24 07:31N 34°31' E 135°23'0 0.2
2014-Nov-24 06:33N 34°31' E 135°23'2 2.3
2014-Nov-24 05:33N 34°33' E 135°24'2 2.1
2014-Nov-24 04:31N 34°33' E 135°27'0 0.0
2014-Nov-24 03:22N 34°33' E 135°27'0 0.0
2014-Nov-24 02:29N 34°33' E 135°27'1 0.6
2014-Nov-24 01:33N 34°33' E 135°26'1 0.7
2014-Nov-24 00:33N 34°33' E 135°25'4 4.0
2014-Nov-23 23:33N 34°34' E 135°20'5 1.7
2014-Nov-23 20:33N 34°33' E 135°27'0 0.0
2014-Nov-23 19:33N 34°33' E 135°27'0 0.0
2014-Nov-23 18:33N 34°33' E 135°27'0 0.0
2014-Nov-23 17:33N 34°33' E 135°27'0 0.0
2014-Nov-23 16:33N 34°33' E 135°27'0 0.0
2014-Nov-23 15:33N 34°33' E 135°27'0 0.0
2014-Nov-23 14:33N 34°33' E 135°27'0 0.0
2014-Nov-23 13:33N 34°33' E 135°27'0 0.0
2014-Nov-23 12:33N 34°33' E 135°27'2 0.3
2014-Nov-23 05:31N 34°33' E 135°24'1111.3
2014-Nov-23 04:33N 34°25' E 135°15'1310.4
2014-Nov-23 03:19N 34°17' E 135°03'4 4.8
2014-Nov-23 02:33N 34°19' E 134°59'1514.6
2014-Nov-23 01:33N 34°30' E 135°11'1211.7
2014-Nov-23 00:33N 34°33' E 135°25'1 1.2
2014-Nov-22 23:33N 34°33' E 135°27'0 0.2
2014-Nov-22 22:14N 34°33' E 135°27'0 0.0
2014-Nov-22 21:25N 34°33' E 135°27'0 0.0
2014-Nov-22 20:33N 34°33' E 135°27'0 0.0
2014-Nov-22 19:33N 34°33' E 135°27'0 0.0
2014-Nov-22 18:33N 34°33' E 135°27'0 0.0
2014-Nov-22 17:33N 34°33' E 135°27'0 0.0
2014-Nov-22 16:33N 34°33' E 135°27'0 0.0
2014-Nov-22 15:33N 34°33' E 135°27'0 0.0
2014-Nov-22 14:33N 34°33' E 135°27'0 0.0
2014-Nov-22 13:15N 34°33' E 135°27'0 0.0
2014-Nov-22 09:31N 34°33' E 135°27'0 0.0
2014-Nov-22 08:33N 34°33' E 135°27'0 0.0
2014-Nov-22 07:33N 34°33' E 135°27'0 0.0
2014-Nov-22 06:17N 34°33' E 135°27'0 0.0
2014-Nov-22 05:32N 34°33' E 135°27'0 0.0
2014-Nov-22 04:25N 34°33' E 135°27'0 0.0
2014-Nov-22 03:14N 34°33' E 135°27'1 2.0
2014-Nov-22 02:33N 34°33' E 135°25'3 2.6
2014-Nov-22 01:32N 34°33' E 135°22'8 7.9
2014-Nov-22 00:30N 34°29' E 135°13'1313.1
2014-Nov-21 23:29N 34°20' E 135°02'8 8.6
2014-Nov-21 22:31N 34°12' E 135°00'1111.2
2014-Nov-21 21:33N 34°21' E 135°07'1211.9
2014-Nov-21 20:33N 34°28' E 135°19'8 7.1
2014-Nov-21 19:23N 34°33' E 135°27'0 0.0
2014-Nov-21 18:33N 34°33' E 135°27'0 0.0
2014-Nov-21 17:29N 34°33' E 135°27'0 0.0
2014-Nov-21 16:32N 34°33' E 135°27'0 0.0
2014-Nov-21 15:33N 34°33' E 135°27'0 0.0
2014-Nov-21 14:33N 34°33' E 135°27'0 0.0
2014-Nov-21 13:33N 34°33' E 135°27'0 0.0
2014-Nov-21 12:33N 34°33' E 135°27'0 0.0
2014-Nov-21 11:33N 34°33' E 135°27'0 0.0
2014-Nov-21 08:19N 34°33' E 135°27'0 0.0
2014-Nov-21 07:31N 34°33' E 135°27'0 0.0
2014-Nov-21 06:22N 34°33' E 135°27'0 0.0
2014-Nov-21 05:33N 34°33' E 135°27'0 0.0
2014-Nov-21 04:20N 34°33' E 135°27'0 0.0
2014-Nov-21 03:30N 34°33' E 135°27'0 0.0
2014-Nov-21 02:33N 34°33' E 135°27'0 0.0
2014-Nov-21 01:33N 34°33' E 135°27'1 0.5
2014-Nov-21 00:33N 34°33' E 135°26'1 0.8
2014-Nov-20 23:13N 34°33' E 135°25'1 1.8
2014-Nov-20 22:32N 34°33' E 135°27'0 0.0
2014-Nov-20 21:33N 34°33' E 135°27'0 0.0
2014-Nov-20 20:33N 34°33' E 135°27'0 0.0
2014-Nov-20 17:24N 34°33' E 135°27'0 0.0
2014-Nov-20 16:25N 34°33' E 135°27'0 0.0
2014-Nov-20 13:30N 34°33' E 135°27'0 0.0
2014-Nov-20 12:30N 34°33' E 135°27'0 0.0
2014-Nov-20 09:15N 34°33' E 135°27'0 0.0
2014-Nov-20 08:32N 34°33' E 135°27'8 8.5
2014-Nov-20 07:33N 34°35' E 135°17'1312.2
2014-Nov-20 06:31N 34°38' E 135°02'13 3.1
2014-Nov-20 02:17N 34°41' E 134°46'810.3
2014-Nov-20 01:32N 34°37' E 134°54'1211.6
2014-Nov-20 00:32N 34°36' E 135°08'1212.0
2014-Nov-19 23:33N 34°34' E 135°23'3 3.2
2014-Nov-19 22:29N 34°33' E 135°27'0 0.0
2014-Nov-19 21:33N 34°33' E 135°27'0 0.0
2014-Nov-19 20:31N 34°33' E 135°27'0 0.0
2014-Nov-19 19:33N 34°33' E 135°27'0 0.0
2014-Nov-19 18:33N 34°33' E 135°27'0 0.0
2014-Nov-19 17:33N 34°33' E 135°27'0 0.0
2014-Nov-19 16:33N 34°33' E 135°27'0 0.0
2014-Nov-19 15:33N 34°33' E 135°27'0 0.0
2014-Nov-19 14:33N 34°33' E 135°27'0 0.0
2014-Nov-19 13:31N 34°33' E 135°27'0 0.0
2014-Nov-19 12:33N 34°33' E 135°27'0 0.0
2014-Nov-19 11:26N 34°33' E 135°27'0 0.0
2014-Nov-19 10:23N 34°33' E 135°27'0 0.0
2014-Nov-19 06:08N 34°33' E 135°27'3 5.9
2014-Nov-19 05:33N 34°32' E 135°23'7 6.3
2014-Nov-19 04:30N 34°27' E 135°18'1010.1
2014-Nov-19 03:33N 34°21' E 135°08'1110.5
2014-Nov-19 02:32N 34°13' E 134°60'3 0.5
2014-Nov-18 20:21N 34°11' E 134°58'1011.7
2014-Nov-18 19:32N 34°19' E 135°04'1212.0
2014-Nov-18 18:33N 34°25' E 135°16'1211.8
2014-Nov-18 17:33N 34°33' E 135°26'0 0.5
2014-Nov-18 16:33N 34°33' E 135°27'0 0.0
2014-Nov-18 15:33N 34°33' E 135°27'0 0.0
2014-Nov-18 14:33N 34°33' E 135°27'0 0.0
2014-Nov-18 13:33N 34°33' E 135°27'0 0.0
2014-Nov-18 12:33N 34°33' E 135°27'0 0.0
2014-Nov-18 11:33N 34°33' E 135°27'0 0.0
2014-Nov-18 07:26N 34°33' E 135°27'1 1.2
2014-Nov-18 06:32N 34°33' E 135°25'4 4.6
2014-Nov-18 05:33N 34°33' E 135°20'1 1.2
2014-Nov-18 04:33N 34°34' E 135°18'6 5.2
2014-Nov-18 03:27N 34°33' E 135°25'0 0.5
2014-Nov-18 02:33N 34°33' E 135°26'1 0.8
2014-Nov-18 01:33N 34°33' E 135°27'0 0.0
2014-Nov-18 00:17N 34°33' E 135°27'0 0.0
2014-Nov-17 23:30N 34°33' E 135°27'0 0.0
2014-Nov-17 22:21N 34°33' E 135°27'0 0.0
2014-Nov-17 21:33N 34°33' E 135°27'0 0.0
2014-Nov-17 20:32N 34°33' E 135°27'0 0.0
2014-Nov-17 19:32N 34°33' E 135°27'0 0.0
2014-Nov-17 18:33N 34°33' E 135°27'0 0.0
2014-Nov-17 17:32N 34°33' E 135°27'0 0.0
2014-Nov-17 16:32N 34°33' E 135°27'0 0.0
2014-Nov-17 15:29N 34°33' E 135°27'0 0.0
2014-Nov-17 14:29N 34°33' E 135°27'0 0.0
2014-Nov-17 13:33N 34°33' E 135°27'0 0.0
2014-Nov-17 12:33N 34°33' E 135°27'0 0.0
2014-Nov-17 11:33N 34°33' E 135°27'0 0.0
2014-Nov-17 10:33N 34°33' E 135°27'0 0.0
2014-Nov-17 09:31N 34°33' E 135°27'0 0.0
2014-Nov-17 08:33N 34°33' E 135°27'0 0.0
2014-Nov-17 07:32N 34°33' E 135°27'0 0.0
2014-Nov-17 06:18N 34°33' E 135°27'0 0.0
2014-Nov-17 05:18N 34°33' E 135°27'0 0.0
2014-Nov-17 04:32N 34°33' E 135°27'0 0.0
2014-Nov-17 03:24N 34°33' E 135°27'0 0.0
2014-Nov-17 02:33N 34°33' E 135°27'0 0.0
2014-Nov-17 01:30N 34°33' E 135°27'1 1.1
2014-Nov-17 00:33N 34°33' E 135°25'1 0.9
2014-Nov-16 23:31N 34°34' E 135°26'1 0.7
2014-Nov-16 22:33N 34°33' E 135°27'0 0.0
2014-Nov-16 21:33N 34°33' E 135°27'0 0.0
2014-Nov-16 20:33N 34°33' E 135°27'0 0.0
2014-Nov-16 19:33N 34°33' E 135°27'0 0.0
2014-Nov-16 18:33N 34°33' E 135°27'0 0.0
2014-Nov-16 17:33N 34°33' E 135°27'0 0.0
2014-Nov-16 16:33N 34°33' E 135°27'0 0.0
2014-Nov-16 15:33N 34°33' E 135°27'0 0.0
2014-Nov-16 14:33N 34°33' E 135°27'  

Dump ship's entire track history